Last 48 Hours

Stanford Met Tower

Hourly Data | America/Los_Angeles
as of 9/1/26 2:24 AM PDT
Date & Time Temp (°F) RH (%) Dew Pt (°F) Wind Dir (°) Wind Spd (mph) Wind Gust (mph) Solar Rad (W/m2) Pressure (mb) NowCast AQI Value (AQI) NowCast AQI Status Latest Rain (In) Daily Rain (In) Daily Min Temp (°F) Daily Max Temp (°F)
9/1/26 - 0200 54.4 90 52.6 SSW | 208 0.6 4.0 0 1,017.1 21 Good 0.00 0.00 53.0 56.1
9/1/26 - 0100 52.6 92 51.4 SSW | 193 3.3 6.0 0 1,017.1 21 Good 0.00 0.00 51.4 69.2
9/1/26 - 0000 52.9 92 51.6 SSW | 196 1.1 5.5 0 1,017.2 21 Good 0.00 0.00 51.4 69.2
8/31/26 - 2300 54.0 90 52.0 SSW | 202 1.2 4.4 0 1,017.3 21 Good 0.00 0.00 51.4 69.2
8/31/26 - 2200 57.2 81 52.3 WSW | 251 1.0 6.5 0 1,017.0 21 Good 0.00 0.00 51.4 69.2
8/31/26 - 2100 59.4 74 52.1 WSW | 248 2.3 9.4 0 1,016.5 21 Good 0.00 0.00 51.4 69.2
8/31/26 - 2000 61.8 70 52.7 WSW | 242 6.5 11.4 28 1,015.7 21 Good 0.00 0.00 51.4 69.2
8/31/26 - 1900 64.6 65 53.4 WSW | 246 7.5 15.3 148 1,015.3 21 Good 0.00 0.00 51.4 69.2
8/31/26 - 1800 66.8 61 53.7 WNW | 284 7.7 17.6 365 1,015.0 21 Good 0.00 0.00 51.4 69.2
8/31/26 - 1700 66.8 62 54.2 NNW | 327 9.2 20.3 532 1,014.7 21 Good 0.00 0.00 51.4 69.2
8/31/26 - 1600 67.7 62 55.0 NW | 311 7.8 16.0 718 1,014.6 21 Good 0.00 0.00 51.4 69.2
8/31/26 - 1500 67.4 63 55.4 W | 279 7.5 18.9 826 1,014.9 21 Good 0.00 0.00 51.4 69.2
8/31/26 - 1400 67.1 65 56.0 WSW | 240 7.6 14.7 860 1,015.6 21 Good 0.00 0.00 51.4 69.2
8/31/26 - 1300 64.5 70 55.5 WNW | 298 4.5 13.6 405 1,016.4 21 Good 0.00 0.00 51.4 66.2
8/31/26 - 1200 63.4 71 54.8 NW | 326 2.1 9.1 358 1,016.8 21 Good 0.00 0.00 51.4 64.5
8/31/26 - 1100 61.6 73 53.8 WNW | 288 1.3 6.2 258 1,017.2 21 Good 0.00 0.00 51.4 63.1
8/31/26 - 1000 60.5 74 53.1 WNW | 290 0.6 5.8 196 1,017.2 21 Good 0.00 0.00 51.4 61.5
8/31/26 - 0900 57.1 88 54.6 E | 83 0.1 3.4 122 1,016.9 21 Good 0.00 0.00 51.4 60.1
8/31/26 - 0800 52.1 96 52.0 SW | 222 0.2 3.7 42 1,017.1 21 Good 0.00 0.00 51.4 57.9
8/31/26 - 0700 52.2 93 51.4 SW | 226 0.6 5.3 3 1,016.5 21 Good 0.00 0.00 51.6 57.9
8/31/26 - 0600 53.0 91 51.6 WSW | 248 3.9 7.7 0 1,016.0 21 Good 0.00 0.00 52.6 57.9
8/31/26 - 0500 54.6 86 51.7 SSW | 201 3.6 8.4 0 1,015.7 21 Good 0.00 0.00 53.2 57.9
8/31/26 - 0400 55.3 88 52.7 SW | 215 3.5 11.2 0 1,015.4 21 Good 0.00 0.00 54.8 57.9
8/31/26 - 0300 56.9 87 54.0 SSW | 209 4.0 7.2 0 1,015.0 21 Good 0.00 0.00 55.9 57.9
8/31/26 - 0200 56.8 90 54.8 SSW | 203 3.4 7.0 0 1,015.0 21 Good 0.00 0.00 55.9 57.7
8/31/26 - 0100 55.3 93 54.3 S | 187 2.0 5.2 0 1,015.4 21 Good 0.00 0.00 49.1 72.3
8/31/26 - 0000 55.5 92 54.1 SE | 135 1.4 5.6 0 1,015.4 21 Good 0.00 0.00 49.1 72.3
8/30/26 - 2300 57.0 89 54.9 SSE | 147 2.1 5.9 0 1,015.3 21 Good 0.00 0.00 49.1 72.3
8/30/26 - 2200 59.0 84 55.3 SSE | 162 0.3 3.7 0 1,015.2 21 Good 0.00 0.00 49.1 72.3
8/30/26 - 2100 62.2 74 54.8 S | 175 2.2 6.3 0 1,014.6 21 Good 0.00 0.00 49.1 72.3
8/30/26 - 2000 66.6 65 55.4 SSW | 197 2.5 8.1 22 1,013.9 21 Good 0.00 0.00 49.1 72.3
8/30/26 - 1900 70.5 59 56.6 NNE | 22 2.2 8.0 178 1,013.2 21 Good 0.00 0.00 49.1 72.3
8/30/26 - 1800 71.0 62 58.3 NNE | 31 5.0 11.0 375 1,013.0 21 Good 0.00 0.00 49.1 72.3
8/30/26 - 1700 70.8 62 57.9 NNE | 23 6.1 13.5 563 1,013.2 21 Good 0.00 0.00 49.1 72.3
8/30/26 - 1600 70.6 62 58.0 NNE | 15 7.4 13.4 718 1,013.3 21 Good 0.00 0.00 49.1 72.3
8/30/26 - 1500 70.2 64 58.2 NNE | 15 6.8 12.1 820 1,013.3 21 Good 0.00 0.00 49.1 72.3
8/30/26 - 1400 69.1 64 57.6 NNE | 12 7.2 15.3 867 1,014.3 21 Good 0.00 0.00 49.1 72.3
8/30/26 - 1300 70.5 60 56.9 NE | 36 6.7 14.7 855 1,014.7 21 Good 0.00 0.00 49.1 72.3
8/30/26 - 1200 68.6 62 55.8 NE | 34 4.8 11.9 786 1,015.0 21 Good 0.00 0.00 49.1 69.9
8/30/26 - 1100 67.8 61 54.7 ENE | 69 1.9 9.0 666 1,015.5 21 Good 0.00 0.00 49.1 69.5
8/30/26 - 1000 64.1 67 53.9 WSW | 239 2.0 7.8 499 1,016.1 21 Good 0.00 0.00 49.1 66.1
8/30/26 - 0900 61.2 74 53.8 NE | 48 1.9 6.5 306 1,017.0 21 Good 0.00 0.00 49.1 62.9
8/30/26 - 0800 52.9 94 52.3 WSW | 256 1.0 5.3 119 1,017.3 21 Good 0.00 0.00 49.1 57.2
8/30/26 - 0700 49.8 94 49.2 SW | 226 1.8 5.5 6 1,017.2 21 Good 0.00 0.00 49.1 54.2
8/30/26 - 0600 50.1 94 49.4 SSW | 206 2.6 6.1 0 1,016.8 21 Good 0.00 0.00 49.5 54.2
8/30/26 - 0500 50.0 94 49.3 SSW | 208 3.4 6.9 0 1,016.7 21 Good 0.00 0.00 49.6 54.2
8/30/26 - 0400 51.1 90 49.3 S | 177 0.1 4.0 0 1,016.7 21 Good 0.00 0.00 50.6 54.2
8/30/26 - 0300 51.5 87 48.7 SW | 233 0.1 2.4 0 1,016.6 21 Good 0.00 0.00 50.9 54.2
8/30/26 - 0200 53.1 82 48.9 SSW | 204 1.1 5.3 0 1,016.7 21 Good 0.00 0.00 51.7 54.2
Max 71.0 96 58.3 - 9.2 20.3 867 1,017.3 21 - 0.00 0.00 55.9 72.3
Avg 60.2 78 53.7 - 3.3 8.8 238 1,015.7 21 - 0.00 - - -
Min 49.8 59 48.7 - 0.1 2.4 0 1,013.0 21 - 0.00 0.00 49.1 54.2
Total - - - - - - - - - - 0.00 - - -